Location: Fontevrault
(47.1823°N, 0.0493°E)
Time: 09:26:39
(UTC+00:00)

FALCON 9 DEB - Pass Details

Date: 16 June 2021
Orbit: 422 x 432 km, 53.0° (Epoch: 03 August)

Event Time Altitude Azimuth Distance (km) Brightness Sun altitude
Rises 21:16:36 0° 221° (SW) 2,390 6.8 -10.3°
Reaches altitude 10° 21:18:46 10° 214° (SSW) 1,524 5.7 -10.6°
Maximum altitude 21:22:00 41° 143° (SE) 635 3.5 -10.9°
Drops below altitude 10° 21:25:15 10° 71° (ENE) 1,526 5.7 -11.2°
Sets 21:27:25 0° 64° (ENE) 2,394 6.8 -11.4°
